Location: York
(31.8935°S, 116.7682°E)
Time: 18:21:18
(UTC+08:00)

Hubble Space Telescope - Pass Details

Date: 15 May 2021
Orbit: 535 x 539 km, 28.5° (Epoch: 17 June)

Event Time Altitude Azimuth Distance (km) Brightness Sun altitude
Rises 17:59:50 0° 326° (NW) 2,674 5.2 -8.0°
Reaches altitude 10° 18:02:57 10° 350° (N) 1,789 3.8 -8.6°
Maximum altitude 18:05:14 14° 24° (NNE) 1,527 3.0 -9.1°
Drops below altitude 10° 18:07:32 10° 58° (ENE) 1,796 3.1 -9.5°
Enters shadow 18:08:32 - 68° (ENE) 2,040 3.3 -9.7°
